Flag for Austria Weather past 2 weeks in Leonding, Upper Austria, Austria

Now
72 °F

Passing clouds.


Feels Like: 77 °F
Forecast: 52 / 75 °F
Wind: 9 mph from Southwest

Location: Linz / Hoersching-Flughafen

Current Time: Jul 30, 2015 at 6:50:28 PM

Latest Report: Jul 30, 2015 at 5:50 PM


Visibility: N/A

Pressure: 29.98 "Hg

Humidity: 38%

Dew point: 45 °F

Location of LeondingLocation

Historic Weather in Leonding — Graph

°F

Leonding temperature yesterday

Maximum temperature yesterday: 73 °F (at 3:50 PM)
Minimum temperature yesterday: 55 °F (at 4:20 AM)
Average temperature yesterday: 64 °F

Past Weeks' High & Low Weather Summary

 TemperatureHumidityPressure
High97 °F (Jul 22, 2:50 PM)100% (Jul 20, 4:50 AM)30.12 "Hg (Jul 20, 4:50 AM)
Low55 °F (Jul 26, 5:20 AM)22% (Jul 22, 2:50 PM)29.68 "Hg (Jul 25, 2:50 AM)
Average74 °F61%29.94 "Hg
* Reported Jul 15 5:20 PM — Jul 30 5:50 PM, Leonding, Weather by CustomWeather, © 2015

Note: Actual official high and low records may vary slightly from our data, if they occured in-between our weather recording intervals... More about our weather records

Advertising

Leonding weather history for previous 24 hours

 ConditionsComfort  
Time TempWeatherWind HumidityBarometerVisibility
5:50 PM
Thu, Jul 30
72 °FPassing clouds.9 mph38%29.98 "HgN/A
5:20 PM72 °FPassing clouds.9 mph38%29.98 "HgN/A
4:50 PM72 °FPassing clouds.9 mph41%29.98 "HgN/A
4:20 PM72 °FPartly sunny.10 mph38%29.98 "HgN/A
3:50 PM70 °FScattered clouds.7 mph40%29.98 "HgN/A
3:20 PM70 °FScattered clouds.8 mph43%29.98 "HgN/A
2:50 PM68 °FScattered clouds.8 mph46%29.98 "HgN/A
2:20 PM68 °FScattered clouds.12 mph43%29.98 "HgN/A
1:50 PM68 °FScattered clouds.12 mph43%30.01 "HgN/A
1:20 PM68 °FScattered clouds.5 mph43%30.01 "HgN/A
12:50 PM66 °FScattered clouds.9 mph49%30.01 "HgN/A
12:20 PM66 °FScattered clouds.8 mph49%30.01 "HgN/A
11:50 AM66 °FScattered clouds.5 mph52%30.01 "HgN/A
11:20 AM64 °FScattered clouds.6 mph60%30.01 "HgN/A
10:50 AM64 °FScattered clouds.6 mph56%30.01 "HgN/A
10:20 AM63 °FScattered clouds.5 mph64%30.01 "HgN/A
9:50 AM63 °FPassing clouds.6 mph64%30.01 "HgN/A
9:20 AM61 °FPassing clouds.7 mph72%30.01 "HgN/A
8:50 AM61 °FPassing clouds.6 mph72%30.01 "HgN/A
8:20 AM59 °FPassing clouds.3 mph77%30.01 "HgN/A
7:50 AM59 °FPassing clouds.3 mph82%30.01 "HgN/A
7:20 AM57 °FScattered clouds.6 mph82%30.01 "HgN/A
6:50 AM57 °FScattered clouds.5 mph88%30.01 "HgN/A
6:20 AM55 °FPassing clouds.6 mph94%30.01 "HgN/A
5:50 AM57 °FPassing clouds.6 mph88%30.01 "HgN/A
5:20 AM55 °FPassing clouds.6 mph94%29.98 "HgN/A
4:50 AM57 °FClear.7 mph88%30.01 "Hg10 mi
4:20 AM57 °FPassing clouds.7 mph88%30.01 "HgN/A
3:50 AM57 °FPassing clouds.8 mph88%30.01 "HgN/A
3:20 AM57 °FPassing clouds.8 mph88%30.01 "HgN/A
2:50 AM59 °FClear.9 mph82%29.98 "Hg10 mi
2:20 AM59 °FClear.10 mph88%29.98 "Hg10 mi
1:50 AM61 °FPassing clouds.8 mph88%29.98 "HgN/A
1:20 AM61 °FPartly cloudy.7 mph88%29.98 "HgN/A
12:50 AM61 °FPartly cloudy.8 mph83%29.98 "HgN/A
12:20 AM61 °FPassing clouds.8 mph88%29.95 "HgN/A
11:50 PM
Wed, Jul 29
61 °FSprinkles. Passing clouds.15 mph83%29.95 "HgN/A
11:20 PM63 °FSprinkles. Passing clouds.12 mph83%29.92 "HgN/A
10:50 PM63 °FSprinkles. Passing clouds.10 mph88%29.92 "HgN/A
10:20 PM63 °FSprinkles. Partly cloudy.13 mph88%29.89 "HgN/A
9:50 PM64 °FSprinkles. Passing clouds.10 mph83%29.86 "HgN/A
9:20 PM64 °FRain showers. Broken clouds.10 mph83%29.86 "HgN/A
8:50 PM66 °FPartly sunny.7 mph78%29.86 "HgN/A
8:20 PM68 °FBroken clouds.8 mph69%29.83 "HgN/A
7:50 PM68 °FBroken clouds.7 mph69%29.83 "HgN/A
7:20 PM68 °FBroken clouds.12 mph64%29.83 "HgN/A
6:50 PM68 °FBroken clouds.9 mph73%29.83 "HgN/A
6:20 PM68 °FPartly sunny.6 mph73%29.83 "HgN/A
Weather by CustomWeather, © 2015

See weather overviewHow to use our weather pages